W0WC Weather Reports


time (UTC)temp
C
wind
direction
speed
KPH
gust
KPH
rain 1hr
cm
rain 24hr
cm
rain mn
cm
humidity
%
barometer
mb
20260507060500 5 4 0.0 0.0 0.00 0.00 0.00 89 1019.3
20260507055956 5 2 0.0 0.0 0.00 0.00 0.00 89 1019.5
20260507055452 5 14 0.0 0.0 0.00 0.00 0.00 88 1019.4
20260507054949 5 18 0.0 0.0 0.00 0.00 0.00 87 1019.4
20260507054445 6 18 0.0 0.0 0.00 0.00 0.00 86 1019.3
20260507053942 6 19 0.0 0.0 0.00 0.00 0.00 86 1019.4
20260507053440 6 19 0.0 0.0 0.00 0.00 0.00 85 1019.4
20260507052938 6 12 0.0 0.0 0.00 0.00 0.00 84 1019.2
20260507052435 6 12 0.0 0.0 0.00 0.00 0.00 84 1019.3
20260507051932 6 14 0.0 0.0 0.00 0.00 0.00 84 1019.2
20260507051430 6 25 0.0 0.0 0.00 0.00 0.00 84 1019.3
20260507050927 6 25 0.0 0.0 0.00 0.00 0.00 85 1019.4
20260507050423 6 20 0.0 0.0 0.00 0.00 0.00 85 1019.4
20260507045920 6 11 0.0 0.0 0.00 0.00 0.00 85 1019.4
20260507045416 6 10 0.0 0.0 0.00 0.00 0.00 85 1019.4
20260507044914 6 5 0.0 0.0 0.00 0.00 0.00 84 1019.4
20260507044410 6 10 0.0 0.0 0.00 0.00 0.00 82 1019.4
20260507043907 6 9 0.0 0.0 0.00 0.00 0.00 83 1019.6
20260507043403 6 9 0.0 0.0 0.00 0.00 0.00 82 1019.3
20260507042900 7 8 0.0 0.0 0.00 0.00 0.00 82 1019.2
20260507042356 7 359 0.0 0.0 0.00 0.00 0.00 81 1019.4
20260507041852 7 11 0.0 0.0 0.00 0.00 0.00 81 1019.3
20260507041349 7 12 0.0 0.0 0.00 0.00 0.00 80 1019.4
20260507040846 7 10 0.0 0.0 0.00 0.00 0.00 78 1019.3
20260507040342 7 15 0.0 0.0 0.00 0.00 0.00 76 1019.1
20260507035838 7 24 0.0 0.0 0.00 0.03 0.03 76 1019.2
20260507035333 8 20 0.0 0.0 0.00 0.03 0.03 74 1019.2
20260507034832 8 8 0.0 0.0 0.00 0.03 0.03 72 1019.1
20260507034328 8 6 0.0 0.0 0.00 0.03 0.03 70 1019.0
20260507033826 8 10 0.0 0.0 0.00 0.03 0.03 69 1019.0
20260507033324 8 11 0.0 0.0 0.00 0.03 0.03 69 1019.0
20260507032821 9 15 0.0 0.0 0.00 0.03 0.03 68 1019.0
20260507032317 9 10 0.0 0.0 0.00 0.03 0.03 67 1019.2
20260507031814 10 4 0.0 1.6 0.00 0.03 0.03 67 1018.8
20260507031310 10 0 1.6 1.6 0.00 0.03 0.03 67 1019.0
20260507030806 10 7 1.6 1.6 0.00 0.03 0.03 67 1019.1
20260507030305 9 8 0.0 0.0 0.00 0.03 0.03 69 1018.9
20260507025801 9 8 0.0 1.6 0.00 0.03 0.03 71 1019.0
20260507025258 8 11 0.0 1.6 0.00 0.03 0.03 73 1019.0
20260507024756 8 14 0.0 0.0 0.00 0.03 0.03 73 1018.9
20260507024253 8 9 0.0 0.0 0.00 0.03 0.03 76 1018.8
20260507023749 8 12 0.0 0.0 0.00 0.03 0.03 74 1019.0
20260507023246 9 13 0.0 0.0 0.00 0.03 0.03 69 1018.7
20260507022743 9 13 0.0 0.0 0.00 0.03 0.03 67 1018.6
20260507022239 10 13 0.0 0.0 0.00 0.03 0.03 65 1018.8
20260507021736 10 13 0.0 0.0 0.00 0.03 0.03 63 1018.5
20260507021231 10 13 0.0 0.0 0.00 0.03 0.03 61 1018.4
20260507020730 11 12 0.0 0.0 0.00 0.03 0.03 60 1018.6
20260507020226 11 12 0.0 0.0 0.00 0.03 0.03 59 1018.4
20260507015723 11 11 0.0 1.6 0.00 0.03 0.03 58 1018.4
20260507015221 11 12 0.0 0.0 0.00 0.03 0.03 58 1018.3
20260507014717 12 9 1.6 1.6 0.00 0.03 0.03 58 1018.2
20260507014214 12 12 0.0 1.6 0.00 0.03 0.03 56 1018.1
20260507013710 12 1 1.6 1.6 0.00 0.03 0.03 55 1018.1
20260507013208 12 15 3.2 3.2 0.00 0.03 0.03 54 1018.1
20260507012705 12 9 3.2 4.8 0.00 0.03 0.03 53 1018.1
20260507012200 13 11 3.2 3.2 0.00 0.03 0.03 53 1017.9
20260507011658 13 20 1.6 3.2 0.00 0.03 0.03 51 1017.9
20260507011154 13 358 3.2 3.2 0.00 0.03 0.03 56 1017.8
20260507010649 13 6 1.6 1.6 0.00 0.03 0.03 53 1017.5
20260507010145 13 19 1.6 1.6 0.00 0.03 0.03 48 1017.5
20260507005643 14 27 1.6 3.2 0.00 0.03 0.03 48 1017.5
20260507005139 14 26 0.0 1.6 0.00 0.03 0.03 46 1017.5
20260507004636 14 19 3.2 3.2 0.00 0.03 0.03 46 1017.6
20260507004134 15 15 1.6 3.2 0.00 0.03 0.03 45 1017.6
20260507003630 15 346 1.6 3.2 0.00 0.03 0.03 45 1017.4
20260507003124 15 12 6.4 6.4 0.00 0.03 0.03 44 1017.5
20260507002621 15 29 1.6 3.2 0.00 0.03 0.03 44 1017.5
20260507002117 15 345 6.4 9.7 0.00 0.03 0.03 44 1017.6
20260507001614 15 19 4.8 4.8 0.00 0.03 0.03 44 1017.4
20260507001112 15 11 4.8 4.8 0.00 0.03 0.03 45 1017.4
20260507000608 15 35 3.2 4.8 0.00 0.03 0.03 45 1017.2
20260506235601 15 21 11.3 12.9 0.00 0.03 0.03 43 1017.2
20260506235101 15 11 4.8 6.4 0.00 0.03 0.03 43 1017.0
20260506234559 15 14 6.4 11.3 0.00 0.03 0.03 42 1017.0
20260506234055 15 10 6.4 11.3 0.00 0.03 0.03 44 1016.9
20260506233552 15 73 6.4 12.9 0.00 0.03 0.03 43 1016.8
20260506233049 16 11 6.4 6.4 0.00 0.03 0.03 43 1016.6
20260506232545 16 16 4.8 6.4 0.00 0.03 0.03 43 1016.8
20260506232041 16 1 12.9 16.1 0.00 0.03 0.03 43 1016.6
20260506231539 16 15 14.5 17.7 0.00 0.03 0.03 43 1016.6
20260506231036 16 0 9.7 14.5 0.00 0.03 0.03 43 1016.6
20260506230533 16 15 17.7 22.5 0.00 0.03 0.03 43 1016.7
20260506230030 16 327 9.7 16.1 0.00 0.03 0.03 44 1016.6
20260506225527 16 27 12.9 17.7 0.00 0.03 0.03 43 1016.7
20260506225023 16 24 17.7 22.5 0.00 0.03 0.03 42 1016.3
20260506224520 16 9 6.4 9.7 0.00 0.03 0.03 42 1016.4
20260506224017 16 57 1.6 3.2 0.00 0.03 0.03 43 1016.7
20260506223512 16 19 8.0 14.5 0.00 0.03 0.03 42 1016.8
20260506223009 16 3 11.3 14.5 0.00 0.03 0.03 43 1016.7
20260506222506 16 33 6.4 9.7 0.00 0.03 0.03 42 1016.5
20260506222002 16 12 3.2 4.8 0.00 0.03 0.03 42 1016.5
20260506221500 16 347 3.2 4.8 0.00 0.03 0.03 42 1016.6
20260506220958 16 67 3.2 4.8 0.00 0.03 0.03 40 1016.6
20260506220453 16 2 6.4 9.7 0.00 0.03 0.03 39 1016.8
20260506215949 16 5 1.6 3.2 0.00 0.03 0.03 41 1016.9
20260506215446 16 59 1.6 4.8 0.00 0.03 0.03 42 1016.6
20260506214947 16 359 12.9 20.9 0.00 0.03 0.03 43 1016.6
20260506214444 16 349 17.7 20.9 0.00 0.03 0.03 42 1016.8
20260506213942 16 354 9.7 11.3 0.00 0.03 0.03 43 1016.8
20260506213439 16 307 11.3 12.9 0.00 0.03 0.03 43 1016.7
20260506212936 16 341 17.7 20.9 0.00 0.03 0.03 42 1016.8
20260506212432 16 46 14.5 17.7 0.00 0.03 0.03 43 1016.7
20260506211927 16 358 8.0 9.7 0.00 0.03 0.03 42 1016.8
20260506211424 16 39 6.4 6.4 0.00 0.03 0.03 42 1016.9
20260506210921 16 36 6.4 9.7 0.00 0.03 0.03 44 1016.8
20260506210417 16 19 6.4 6.4 0.00 0.03 0.03 42 1016.9
20260506205915 16 80 4.8 6.4 0.00 0.03 0.03 43 1017.0
20260506205410 16 303 9.7 11.3 0.00 0.03 0.03 46 1016.9
20260506204907 16 43 3.2 4.8 0.00 0.03 0.03 46 1017.0
20260506204405 16 4 11.3 14.5 0.00 0.03 0.03 44 1017.0
20260506203902 16 25 4.8 9.7 0.00 0.03 0.03 43 1017.2
20260506203359 16 6 1.6 1.6 0.00 0.03 0.03 44 1017.1
20260506202856 16 358 20.9 27.4 0.00 0.03 0.03 41 1017.4
20260506202353 16 320 4.8 9.7 0.00 0.03 0.03 40 1017.4
20260506201849 16 48 1.6 3.2 0.00 0.03 0.03 43 1017.4
20260506201347 16 334 9.7 14.5 0.00 0.03 0.03 43 1017.4
20260506200843 16 34 6.4 9.7 0.00 0.03 0.03 44 1017.4
20260506200339 16 331 19.3 22.5 0.00 0.03 0.03 42 1017.5
20260506195836 16 317 11.3 14.5 0.00 0.03 0.03 44 1017.3
20260506195333 16 348 8.0 11.3 0.00 0.03 0.03 44 1017.3
20260506194830 16 38 9.7 16.1 0.00 0.03 0.03 42 1017.5
20260506194326 16 39 1.6 3.2 0.00 0.03 0.03 45 1017.6
20260506193824 16 327 6.4 6.4 0.00 0.03 0.03 44 1017.6
20260506193321 16 310 8.0 16.1 0.00 0.03 0.03 44 1017.9
20260506192817 16 18 14.5 16.1 0.00 0.03 0.03 45 1018.0
20260506192314 16 317 9.7 12.9 0.00 0.03 0.03 43 1018.1
20260506191811 15 25 4.8 9.7 0.00 0.03 0.03 45 1018.1
20260506191307 15 352 3.2 3.2 0.00 0.03 0.03 43 1018.1
20260506190804 16 22 12.9 14.5 0.00 0.03 0.03 45 1018.3
20260506190301 15 4 3.2 6.4 0.00 0.03 0.03 44 1018.0
20260506185758 15 58 12.9 14.5 0.00 0.03 0.03 45 1018.2
20260506185254 16 6 6.4 9.7 0.00 0.03 0.03 44 1018.3
20260506184752 15 24 9.7 11.3 0.00 0.03 0.03 44 1018.3
20260506184249 15 2 16.1 25.7 0.00 0.03 0.03 45 1018.3
20260506183746 15 21 6.4 11.3 0.00 0.03 0.03 43 1018.4
20260506183246 15 12 8.0 12.9 0.00 0.03 0.03 45 1018.4
20260506182744 15 36 3.2 9.7 0.00 0.03 0.03 44 1018.5
20260506182241 15 8 9.7 11.3 0.00 0.03 0.03 45 1018.5
20260506181739 15 20 6.4 11.3 0.00 0.03 0.03 45 1018.7
20260506181236 15 339 1.6 4.8 0.00 0.03 0.03 47 1019.0
20260506180733 15 20 12.9 16.1 0.00 0.03 0.03 45 1018.9
20260506180234 15 12 1.6 1.6 0.00 0.03 0.03 42 1018.9
20260506175730 15 14 1.6 1.6 0.00 0.03 0.03 46 1019.2
20260506175227 15 94 3.2 9.7 0.00 0.03 0.03 45 1019.3
20260506174725 15 10 9.7 14.5 0.00 0.03 0.03 45 1019.1
20260506174221 15 22 3.2 6.4 0.00 0.03 0.03 47 1019.2
20260506173719 14 14 9.7 12.9 0.00 0.03 0.03 46 1019.2
20260506173216 15 18 9.7 14.5 0.00 0.03 0.03 44 1019.1
20260506172713 15 3 6.4 9.7 0.00 0.03 0.03 47 1019.2
20260506172209 15 20 3.2 9.7 0.00 0.03 0.03 46 1019.2
20260506171707 13 19 0.0 0.0 0.00 0.03 0.03 47 1019.1
20260506171205 13 32 3.2 4.8 0.00 0.03 0.03 47 1019.1
20260506170702 13 23 4.8 6.4 0.00 0.03 0.03 47 1019.3
20260506170158 13 26 6.4 9.7 0.00 0.03 0.03 46 1019.5
20260506165657 13 27 6.4 9.7 0.00 0.03 0.03 49 1019.6
20260506165153 13 115 1.6 3.2 0.00 0.03 0.03 50 1019.5
20260506164650 13 12 4.8 4.8 0.00 0.03 0.03 50 1019.5
20260506164148 13 32 3.2 6.4 0.00 0.03 0.03 48 1019.5
20260506163644 13 25 8.0 11.3 0.00 0.03 0.03 49 1019.1
20260506163139 13 350 4.8 6.4 0.00 0.03 0.03 50 1018.9
20260506162635 13 2 8.0 11.3 0.00 0.03 0.03 51 1019.0
20260506162133 13 36 3.2 6.4 0.00 0.03 0.03 53 1018.7
20260506161630 13 75 9.7 16.1 0.00 0.03 0.03 52 1018.6
20260506161127 13 37 1.6 1.6 0.00 0.03 0.03 53 1018.3
20260506160624 13 24 4.8 4.8 0.00 0.03 0.03 54 1018.2
20260506160121 13 10 3.2 6.4 0.00 0.03 0.03 53 1018.1
20260506155620 13 43 3.2 4.8 0.00 0.03 0.03 54 1018.3
20260506155117 12 53 3.2 4.8 0.00 0.03 0.03 58 1018.0
20260506153218 12 33 6.4 9.7 0.00 0.03 0.03 56 1018.3
20260506152715 12 17 14.5 17.7 0.00 0.03 0.03 57 1018.2
20260506152212 12 6 4.8 9.7 0.00 0.03 0.03 59 1018.2
20260506151712 12 7 3.2 3.2 0.00 0.03 0.03 59 1018.2
20260506151208 12 67 8.0 11.3 0.00 0.03 0.03 58 1018.3
20260506150704 12 14 4.8 6.4 0.00 0.03 0.03 60 1018.2
20260506150201 12 356 4.8 6.4 0.00 0.03 0.03 62 1018.5
20260506145658 11 21 6.4 9.7 0.00 0.03 0.03 61 1018.1
20260506145155 11 11 3.2 4.8 0.00 0.03 0.03 62 1017.9
20260506144653 11 23 3.2 3.2 0.00 0.03 0.03 65 1018.0
20260506144149 11 352 6.4 6.4 0.00 0.03 0.03 66 1018.0
20260506143646 11 18 3.2 4.8 0.00 0.03 0.03 69 1017.5
20260506143144 10 28 3.2 4.8 0.00 0.03 0.03 69 1017.9
20260506142643 10 2 4.8 4.8 0.00 0.03 0.03 70 1017.8
20260506142140 10 45 9.7 14.5 0.00 0.03 0.03 71 1017.5
20260506141638 10 18 3.2 4.8 0.00 0.03 0.03 72 1017.8
20260506141136 10 43 1.6 3.2 0.00 0.03 0.03 74 1018.1
20260506140633 10 15 4.8 6.4 0.00 0.03 0.03 75 1018.2
20260506140130 9 354 6.4 6.4 0.00 0.03 0.03 76 1018.3
20260506135627 9 61 3.2 4.8 0.00 0.03 0.03 76 1018.3
20260506135123 8 36 0.0 0.0 0.00 0.03 0.03 77 1018.2
20260506134620 8 18 0.0 1.6 0.00 0.03 0.03 76 1018.4
20260506134115 8 50 3.2 4.8 0.00 0.03 0.03 77 1018.2
20260506133613 8 35 3.2 4.8 0.00 0.03 0.03 78 1018.2
20260506133110 8 7 0.0 0.0 0.00 0.03 0.03 79 1018.1
20260506132608 8 39 3.2 3.2 0.00 0.03 0.03 79 1018.1
20260506132104 8 177 1.6 3.2 0.00 0.03 0.03 80 1018.0
20260506131602 8 55 0.0 1.6 0.00 0.03 0.03 81 1017.9
20260506131058 8 42 1.6 1.6 0.00 0.03 0.03 81 1017.9
20260506130555 8 41 3.2 4.8 0.00 0.03 0.03 81 1018.0
20260506130053 8 39 1.6 3.2 0.00 0.03 0.03 81 1017.9
20260506125551 8 82 1.6 3.2 0.00 0.03 0.03 82 1017.8
20260506125048 8 359 8.0 11.3 0.00 0.03 0.03 83 1018.1
20260506124545 7 18 3.2 6.4 0.00 0.03 0.03 83 1017.5
20260506124043 7 30 1.6 1.6 0.00 0.03 0.03 84 1017.8
20260506123541 7 17 1.6 3.2 0.00 0.03 0.03 85 1017.8
20260506123039 7 19 1.6 1.6 0.00 0.03 0.03 85 1017.8
20260506122535 7 31 1.6 1.6 0.00 0.03 0.03 86 1017.9
20260506122034 7 15 1.6 1.6 0.00 0.03 0.03 87 1017.9
20260506121531 7 24 3.2 3.2 0.00 0.03 0.03 88 1018.0
20260506121027 7 8 6.4 6.4 0.00 0.03 0.03 88 1017.9
20260506120525 7 31 6.4 11.3 0.00 0.03 0.03 89 1018.1
20260506120022 7 21 1.6 3.2 0.00 0.03 0.03 91 1018.0
20260506115520 7 21 9.7 11.3 0.00 0.03 0.03 92 1018.1
20260506115018 7 348 4.8 6.4 0.00 0.03 0.03 92 1017.9
20260506114515 7 14 6.4 11.3 0.00 0.03 0.03 92 1017.8
20260506114014 7 2 4.8 4.8 0.00 0.03 0.03 93 1017.9
20260506113511 7 8 3.2 3.2 0.00 0.03 0.03 93 1017.5
20260506113008 7 0 4.8 6.4 0.00 0.03 0.03 93 1017.4
20260506112505 7 5 6.4 9.7 0.00 0.03 0.03 93 1017.5
20260506112002 7 33 4.8 4.8 0.00 0.03 0.03 93 1017.2
20260506111500 7 4 3.2 4.8 0.00 0.03 0.03 93 1017.2
20260506110956 7 16 8.0 11.3 0.00 0.03 0.03 94 1017.4
20260506110455 7 33 6.4 6.4 0.00 0.03 0.03 94 1017.2
20260506105951 7 12 3.2 3.2 0.00 0.03 0.03 94 1017.2
20260506105447 7 15 3.2 3.2 0.00 0.03 0.03 94 1017.2
20260506104945 7 16 1.6 3.2 0.00 0.03 0.03 94 1017.0
20260506104443 7 11 6.4 6.4 0.00 0.03 0.03 94 1016.7
20260506103941 7 0 3.2 3.2 0.00 0.03 0.03 94 1016.8
20260506103438 7 11 3.2 3.2 0.00 0.03 0.03 93 1016.6
20260506102935 7 18 3.2 4.8 0.00 0.03 0.03 93 1016.2
20260506102433 7 1 6.4 6.4 0.00 0.03 0.03 93 1016.3
20260506101930 7 27 3.2 4.8 0.00 0.03 0.03 93 1016.2
20260506101426 7 7 4.8 4.8 0.00 0.03 0.03 93 1016.3
20260506100923 7 315 3.2 4.8 0.00 0.03 0.03 93 1016.3
20260506100421 7 12 8.0 9.7 0.00 0.03 0.03 93 1016.2
20260506095919 7 2 4.8 4.8 0.00 0.03 0.03 93 1016.0
20260506095417 7 308 6.4 6.4 0.00 0.03 0.03 93 1015.9
20260506094913 7 17 3.2 3.2 0.00 0.03 0.03 93 1015.8
20260506094412 7 14 1.6 3.2 0.00 0.03 0.03 93 1015.9
20260506093909 7 5 3.2 4.8 0.00 0.03 0.03 93 1015.7
20260506093407 7 16 1.6 3.2 0.00 0.03 0.03 93 1015.7
20260506092905 7 6 4.8 6.4 0.00 0.03 0.03 93 1015.7
20260506092403 7 13 3.2 4.8 0.00 0.03 0.03 92 1015.8
20260506091859 7 7 3.2 3.2 0.00 0.03 0.03 92 1015.6
20260506091357 7 18 4.8 4.8 0.00 0.03 0.03 92 1015.9
20260506090854 7 10 3.2 3.2 0.00 0.03 0.03 91 1015.6
20260506090352 7 18 1.6 3.2 0.00 0.03 0.03 91 1015.4
20260506085848 7 11 1.6 3.2 0.00 0.03 0.03 91 1015.5
20260506085344 7 34 3.2 3.2 0.00 0.03 0.03 90 1014.9
20260506084841 7 6 1.6 3.2 0.13 0.03 0.03 89 1015.0
20260506084338 7 358 1.6 3.2 0.13 0.03 0.03 89 1014.6
20260506083834 7 8 4.8 4.8 0.00 0.00 0.00 88 1014.6
20260506083332 7 20 3.2 3.2 0.00 0.00 0.00 87 1014.1
20260506082829 7 20 4.8 4.8 0.00 0.00 0.00 87 1014.1
20260506082326 7 28 3.2 4.8 0.00 0.00 0.00 87 1014.5
20260506081822 7 4 3.2 3.2 0.00 0.00 0.00 87 1014.7
20260506081320 7 22 0.0 1.6 0.00 0.00 0.00 88 1014.0
20260506080817 7 53 1.6 3.2 0.00 0.00 0.00 87 1013.9
20260506080313 7 16 4.8 9.7 0.00 0.00 0.00 87 1013.7
20260506073258 7 0 4.8 4.8 0.00 0.00 0.00 86 1013.6
20260506072754 7 12 1.6 3.2 0.00 0.00 0.00 85 1013.6
20260506072252 7 359 8.0 11.3 0.00 0.00 0.00 85 1013.4
20260506071749 7 7 3.2 3.2 0.00 0.00 0.00 84 1013.7
20260506071247 7 8 3.2 3.2 0.00 0.00 0.00 84 1013.9
20260506070744 8 34 1.6 3.2 0.00 0.00 0.00 83 1013.3
20260506070241 8 353 3.2 3.2 0.00 0.00 0.00 83 1013.5
20260506062218 8 17 1.6 3.2 0.00 0.00 0.00 83 1015.0
20260506061714 8 6 6.4 6.4 0.00 0.00 0.00 82 1014.8
20260506061212 8 26 0.0 0.0 0.00 0.00 0.00 83 1014.7